RADUGA 7 [-]

Last updated on July 6, 2021, 3:35 p.m. UTC

1 12003U 80081A   21186.60767086  .00000120  00000-0  00000-0 0  9994
2 12003  10.2130 308.1910 0008798 250.6765 159.8929  1.00358272105186
UTC
Height (km)
Latitude
Longitude
Inclination
Orbital Period
UTC large
Height (km)
Speed (km/s)
/
Latitude / Longitude
Inclination (degrees)
Orbital Period (minutes)
Azimuth
Elevation
Range (km)
Doppler Factor
iOS Compass Heading
iOS Angle